Weather History for Istanbul, Turkey

Change the Weather History Date:

Sunday, February 24, 2013

  Actual Average Record
Temperature  
Mean Temperature 51 °F -  
Max Temperature 61 °F 50 °F 61 °F (2013)
Min Temperature 41 °F 39 °F 30 °F (2003)
Degree Days  
Heating Degree Days 14    
Growing Degree Days 1 (Base 50)    
Moisture  
Dew Point 43 °F    
Average Humidity 79    
Maximum Humidity 100    
Minimum Humidity 47    
Precipitation  
Precipitation 0.00 in - - ()
Sea Level Pressure  
Sea Level Pressure 30.20 in    
Wind  
Wind Speed 6 mph ()    
Max Wind Speed 13 mph    
Max Gust Speed -    
Visibility 4.2 miles    
Events      
Averages and records for this station are not official NWS values.
T = Trace of Precipitation, MM = Missing Value Source: Averaged Metar Reports

Daily Weather History Graph

Daily Weather History Graph

Search for Another Location

Airport:

Trip Planner

Search our weather history database for the weather conditions in past years. The results will help you decide how hot, cold, wet, or windy it might be!

Date:

Astronomy

Feb. 24, 2013 Rise Set
Actual Time 6:46 AM EET 5:49 PM EET
Civil Twilight 6:18 AM EET 6:17 PM EET
Nautical Twilight 5:46 AM EET 6:49 PM EET
Astronomical Twilight 5:15 AM EET 7:21 PM EET
Moon 4:40 PM EET (2/24) 5:32 AM EET (2/24)
Length of Visible Light 11h 58m
Length of Day
11h 03m
Waxing Gibbous, 98% of the Moon is Illuminated
Feb 24
Waxing Gibbous
Feb 25
Full
Mar 4
Last Quarter
Mar 11
New
Mar 19
First Quarter

Hourly Weather History & Observations

Time (EET) Temp. Windchill Dew Point Humidity Pressure Visibility Wind Dir Wind Speed Gust Speed Precip Events Conditions
12:20 AM 46.4 °F 43.5 °F 44.6 °F 93% 30.15 in 6.2 mi NNW 5.8 mph - N/A   Scattered Clouds
12:50 AM 46.4 °F 42.4 °F 44.6 °F 93% 30.15 in 6.2 mi North 8.1 mph - N/A   Scattered Clouds
1:20 AM 44.6 °F 39.7 °F 44.6 °F 100% 30.15 in 6.2 mi North 9.2 mph - N/A   Scattered Clouds
1:50 AM 44.6 °F 40.2 °F 42.8 °F 93% 30.15 in 6.2 mi North 8.1 mph - N/A   Scattered Clouds
2:00 AM 45 °F - 42 °F 87% 30.18 in 6 mi North 8.1 mph - -   Partly Cloudy
2:20 AM 44.6 °F 40.7 °F 42.8 °F 93% 30.15 in 6.2 mi North 6.9 mph - N/A   Scattered Clouds
2:50 AM 42.8 °F 38.0 °F 41.0 °F 93% 30.18 in 1.9 mi North 8.1 mph - N/A   Scattered Clouds
3:20 AM 41.0 °F 35.2 °F 41.0 °F 100% 30.18 in 1.2 mi NNW 9.2 mph - N/A   Mostly Cloudy
3:50 AM 42.8 °F 38.6 °F 42.8 °F 100% 30.18 in 1.9 mi North 6.9 mph - N/A   Mostly Cloudy
4:20 AM 42.8 °F 38.6 °F 42.8 °F 100% 30.18 in 2.5 mi North 6.9 mph - N/A   Mostly Cloudy
4:50 AM 42.8 °F 39.3 °F 42.8 °F 100% 30.18 in 2.8 mi North 5.8 mph - N/A   Scattered Clouds
5:20 AM 42.8 °F 40.1 °F 42.8 °F 100% 30.18 in - NNE 4.6 mph - N/A   Scattered Clouds
5:50 AM 44.6 °F 42.2 °F 44.6 °F 100% 30.18 in - NNE 4.6 mph - N/A   Scattered Clouds
6:20 AM 44.6 °F 41.4 °F 44.6 °F 100% 30.21 in - NNW 5.8 mph - N/A   Scattered Clouds
6:50 AM 44.6 °F 42.2 °F 44.6 °F 100% 30.21 in 2.8 mi North 4.6 mph - N/A   Scattered Clouds
7:20 AM 44.6 °F - 44.6 °F 100% 30.21 in 3.7 mi Variable 2.3 mph - N/A   Scattered Clouds
7:50 AM 44.6 °F 42.2 °F 44.6 °F 100% 30.21 in 3.7 mi East 4.6 mph - N/A   Scattered Clouds
8:00 AM 45 °F - 45 °F 98% 30.24 in 4 mi East 4.6 mph - -   Mist
8:20 AM 46.4 °F 44.3 °F 46.4 °F 100% 30.21 in 5.0 mi ENE 4.6 mph - N/A   Scattered Clouds
8:50 AM 48.2 °F - 42.8 °F 82% 30.24 in 4.3 mi Variable 4.6 mph - N/A   Scattered Clouds
9:20 AM 48.2 °F - 42.8 °F 82% 30.21 in 4.3 mi Variable 4.6 mph - N/A   Partly Cloudy
9:50 AM 50.0 °F - 42.8 °F 76% 30.24 in - East 3.5 mph - N/A   Clear
10:20 AM 50.0 °F - 42.8 °F 76% 30.24 in - ESE 4.6 mph - N/A   Clear
10:50 AM 51.8 °F - 42.8 °F 71% 30.24 in - ESE 4.6 mph - N/A   Clear
11:20 AM 53.6 °F - 42.8 °F 67% 30.24 in - ESE 4.6 mph - N/A   Clear
11:50 AM 53.6 °F - 44.6 °F 72% 30.21 in - ESE 4.6 mph - N/A   Clear
12:20 PM 57.2 °F - 42.8 °F 59% 30.21 in - East 8.1 mph - N/A   Clear
12:50 PM 55.4 °F - 41.0 °F 58% 30.21 in - ESE 6.9 mph - N/A   Clear
1:20 PM 57.2 °F - 42.8 °F 59% 30.18 in - ESE 6.9 mph - N/A   Clear
1:50 PM 59.0 °F - 42.8 °F 55% 30.18 in - ESE 4.6 mph - N/A   Clear
2:00 PM 58 °F - 43 °F 47% 30.20 in 6 mi ESE 4.6 mph - -  
2:20 PM 59.0 °F - 42.8 °F 55% 30.18 in - Variable 2.3 mph - N/A   Clear
2:50 PM 60.8 °F - 44.6 °F 55% 30.18 in - South 3.5 mph - N/A   Clear
3:20 PM 60.8 °F - 44.6 °F 55% 30.18 in - South 3.5 mph - N/A   Clear
3:50 PM 59.0 °F - 42.8 °F 55% 30.18 in - WSW 4.6 mph - N/A   Clear
4:20 PM 60.8 °F - 44.6 °F 55% 30.18 in - Variable 9.2 mph - N/A   Clear
4:50 PM 57.2 °F - 42.8 °F 59% 30.18 in - North 9.2 mph - N/A   Clear
5:20 PM 55.4 °F - 42.8 °F 63% 30.18 in - North 9.2 mph - N/A   Clear
5:50 PM 55.4 °F - 42.8 °F 63% 30.18 in - North 11.5 mph - N/A   Clear
6:20 PM 53.6 °F - 41.0 °F 62% 30.18 in - NNE 9.2 mph - N/A   Clear
6:50 PM 51.8 °F - 41.0 °F 67% 30.21 in - NNE 9.2 mph - N/A   Clear
7:20 PM 50.0 °F - 41.0 °F 71% 30.21 in - NNE 9.2 mph - N/A   Clear
7:50 PM 48.2 °F - 41.0 °F 76% 30.21 in - NNE 9.2 mph - N/A   Clear
8:00 PM 48 °F - 41 °F 70% 30.23 in 6 mi NNE 9.2 mph - -  
8:20 PM 50.0 °F - 42.8 °F 76% 30.21 in 3.7 mi NNE 9.2 mph - N/A   Unknown
8:50 PM 48.2 °F - 41.0 °F 76% 30.21 in 3.7 mi NNE 6.9 mph - N/A   Unknown
9:20 PM 48.2 °F - 42.8 °F 82% 30.21 in 3.7 mi NNE 8.1 mph - N/A   Unknown
9:50 PM 48.2 °F - 41.0 °F 76% 30.21 in 3.7 mi NNE 6.9 mph - N/A   Unknown
10:20 PM 48.2 °F - 42.8 °F 82% 30.21 in 3.7 mi North 8.1 mph - N/A   Unknown
10:50 PM 44.6 °F 38.8 °F 41.0 °F 87% 30.21 in 3.7 mi North 11.5 mph - N/A   Unknown
11:20 PM 44.6 °F 38.4 °F 41.0 °F 87% 30.21 in 3.7 mi North 12.7 mph - N/A   Unknown
11:50 PM 44.6 °F 39.2 °F 41.0 °F 87% 30.21 in 3.7 mi North 10.4 mph - N/A   Unknown